Location: Auzoux
(45.8349°N, 1.8601°E)
Time: 19:34:04
(UTC+00:00)

Daily predictions for brighter satellites

Satellite Brightness Start Highest point End
(mag) Time Altitude Azimuth Time Altitude Azimuth Time Altitude Azimuth
Cosmos 2154 Rocket 4.0 18:05:40 10° S 18:11:51 81° E 18:18:05 10° N
ERS-2 3.0 18:12:20 10° NE 18:15:32 28° E 18:18:43 10° SSE
CZ-2C R/B 3.4 18:11:10 10° NNE 18:15:53 30° E 18:20:29 10° SSE
Cosmos 1689 Rocket 3.0 18:14:36 10° NE 18:17:06 25° E 18:19:34 10° SSE
USA 305 4.2 18:14:33 10° NW 18:18:20 29° N 18:22:06 10° ENE
SL-08 RB Rocket 4.5 18:15:02 10° SE 18:19:02 32° ENE 18:23:06 10° N
CREW DRAGON DEMO-1 DEB 3.7 18:18:50 10° SSW 18:21:19 28° SE 18:23:49 10° E
NOSS 3-2 (A) 4.3 18:17:09 10° SSE 18:21:27 24° ESE 18:26:11 10° ENE
H-2A R/B 3.6 18:17:44 10° N 18:21:33 38° WNW 18:25:22 10° SW
FALCON 9 DEB 4.0 18:19:54 10° NW 18:22:51 33° NNE 18:25:47 10° E
HJ-1C 3.9 18:20:27 10° SE 18:23:31 36° ENE 18:26:36 10° N
COSMOS 2428 3.3 18:18:39 10° SSE 18:23:43 34° ESE 18:28:48 10° NE
SL-16 R/B 3.7 18:21:38 10° WSW 18:26:54 38° NW 18:32:12 10° NNE
Cosmos 1470 Rocket 4.0 18:25:11 10° SSW 18:29:38 68° W 18:34:03 10° N
USA 307 4.1 18:28:20 10° NW 18:32:10 31° NNE 18:35:52 11° ENE
SKYMED 2 4.5 18:28:17 10° N 18:32:32 54° WNW 18:36:45 10° SSW
SL-8 Rocket 4.2 18:27:10 10° SSE 18:33:06 49° E 18:39:01 10° NNE
CENTAUR R/B 3.6 18:29:16 10° SSE 18:33:19 20° ESE 18:37:48 10° ENE
USA 306 4.1 18:29:35 10° NW 18:33:28 31° NNE 18:37:06 11° ENE
ATLAS CENTAUR R/B 2.7 18:31:30 10° WSW 18:34:50 33° NW 18:38:14 10° NNE
Cosmos 962 Rocket 4.5 18:30:36 10° S 18:36:48 76° E 18:43:08 10° NNE
Cosmos 1743 4.4 18:37:43 10° ESE 18:39:53 15° E 18:42:05 10° NE
Cosmos 1666 2.6 18:37:45 10° S 18:41:26 64° E 18:45:09 10° NNE
USA 308 4.0 18:39:11 10° NW 18:43:03 32° NNE 18:46:15 14° ENE
Cosmos 1703 Rocket 3.5 18:39:19 10° N 18:43:43 86° ENE 18:48:04 10° S
Cosmos 2322 3.7 18:38:48 10° SSW 18:44:29 75° ESE 18:50:13 10° NNE
CSL-04 Rocket 3.7 18:39:34 10° SSE 18:45:01 64° ENE 18:50:27 10° N
Cosmos 1339 Rocket 4.5 18:39:37 10° N 18:45:50 67° E 18:52:07 10° SSE
Cosmos 1844 Rocket 3.6 18:42:07 10° NW 18:47:31 52° WSW 18:52:53 10° S
Okean-O 2.8 18:43:46 10° S 18:48:11 75° WSW 18:52:38 10° NNW
BREEZE-M DEB (TANK) 3.4 18:46:40 10° SSW 18:48:50 31° SE 18:50:06 20° E
Cosmos 1933 Rocket 4.2 18:45:43 10° SSW 18:50:02 61° W 18:54:25 10° N
Cosmos 2366 rocket 4.1 18:45:11 10° SSE 18:51:19 55° E 18:57:30 10° NNE
ASTEX 1 4.1 18:47:50 10° NNE 18:52:06 29° E 18:56:20 10° SSE
Cosmos 1777 Rocket 4.0 18:46:55 10° NNW 18:52:11 87° ENE 18:57:24 10° SSE
H-2A R/B 2.7 18:46:50 10° S 18:52:14 65° WSW 18:57:39 10° NNW
CSL-04 Debris 4.1 18:47:11 10° SSE 18:52:37 78° ENE 18:58:07 10° NNW
SJ-6B 3.8 18:52:44 16° ESE 18:55:13 28° ENE 18:58:40 10° N
Ariane Rocket 3.8 18:55:34 15° ESE 18:58:54 30° ENE 19:03:18 10° N
Cosmos 2221 Rocket 4.3 18:55:07 10° N 18:59:09 33° ENE 19:02:11 16° SE
USA 186 2.2 18:59:36 27° ENE 18:59:36 27° ENE 19:01:47 10° N
OBJECT-B 2.0 19:02:10 23° ENE 19:02:10 23° ENE 19:04:45 10° NNE
NOSS 3-2 (C) 4.1 18:58:28 10° SSE 19:03:05 27° ESE 19:08:11 10° NE
Meteor 1-11 Rocket 3.6 18:59:36 10° S 19:05:14 69° E 19:10:46 10° NNE
Okean 1-7 3.8 19:03:33 10° NNW 19:07:49 55° W 19:12:01 10° S
Cosmos 2360 Rocket 3.6 19:03:45 10° WSW 19:09:01 39° NW 19:14:20 10° NNE
YAOGAN 1 3.9 19:05:05 10° S 19:09:10 42° W 19:13:18 10° NNW
FALCON 9 DEB 2.9 19:09:38 10° NW 19:12:48 68° NNE 19:13:45 40° E
SAR-Lupe-4 4.2 19:09:17 10° N 19:12:49 59° WNW 19:16:20 10° SSW
Cosmos 1943 Rocket 4.0 19:11:02 10° N 19:13:58 14° NE 19:15:25 13° NE
Cosmos 2341 Rocket 4.4 19:08:45 10° SSW 19:15:00 66° W 19:21:14 10° N
Meteor 1-13 Rocket 4.4 19:09:15 10° NNW 19:15:12 82° W 19:21:00 10° S
Cosmos 1821 Rocket 4.4 19:10:03 10° SSE 19:15:39 37° E 19:21:12 10° NNE
Cosmos 2237 Rocket 2.7 19:11:03 10° SSE 19:16:07 34° ESE 19:21:13 10° NE
SJ 16-02 1.4 19:12:18 10° NNW 19:16:40 59° ENE 19:19:19 23° SE
Cosmos 1727 Rocket 4.0 19:11:05 10° N 19:17:14 62° ENE 19:23:23 10° SSE
Cosmos 1544 3.5 19:14:02 10° SSE 19:17:27 39° E 19:20:53 10° NNE
DMSP B5D2-2 4.0 19:13:13 10° NNE 19:18:26 66° E 19:23:35 10° S
Cosmos 2278 Rocket 2.3 19:13:11 10° NNW 19:18:46 56° ENE 19:22:11 23° SE
Cosmos 1536 2.7 19:15:48 10° S 19:19:47 84° E 19:23:47 10° N
FALCON 9 DEB 2.8 19:17:30 10° WNW 19:20:41 87° NNE 19:21:22 52° ESE
Okean 3 3.5 19:16:48 10° N 19:21:05 81° W 19:25:22 10° S
SL-4 R/B 2.7 19:18:02 10° WNW 19:21:18 37° SW 19:22:57 22° SSE
USA 81 4.5 19:16:40 10° SSE 19:21:28 38° E 19:26:18 10° NNE
SWAS 4.3 19:17:26 10° SSW 19:21:43 80° ESE 19:26:03 10° NNE
SeaSat 1 2.3 19:20:25 10° NNE 19:25:22 73° ESE 19:30:18 10° SSW
Cosmos 2218 Rocket 4.1 19:19:13 10° S 19:25:37 83° W 19:32:02 10° N
Abrixas rocket 2.5 19:24:34 10° W 19:26:45 40° SW 19:26:45 40° SW
MetOp-A 4.0 19:24:10 10° SSE 19:29:31 82° ENE 19:34:54 10° NNW
Resurs 01 Rocket 2.9 19:31:41 24° NE 19:31:41 24° NE 19:34:36 10° N
SME Rocket 3.8 19:25:57 10° NNE 19:33:02 63° E 19:37:45 10° S
Meteor 2-20 Rocket 4.5 19:27:18 10° N 19:33:19 55° ENE 19:37:10 22° SSE
Helios 1A Rocket 4.5 19:31:14 10° SSW 19:34:58 36° W 19:38:43 10° NNW
Gbstr 26 Del rocket 3.6 19:31:37 10° WNW 19:36:18 64° NNE 19:38:19 38° E
Cosmos 2333 Rocket 3.0 19:30:59 10° SW 19:36:31 52° WNW 19:42:08 10° NNE
USA 234 3.5 19:33:08 25° ENE 19:36:33 44° SE 19:42:44 10° SSW
Lacrosse 4 Rocket 3.0 19:34:08 10° WSW 19:38:16 38° NW 19:42:30 10° NNE
Cosmos 1937 Rocket 4.1 19:34:47 10° N 19:39:30 34° ENE 19:39:49 34° ENE
USA 238 DEB 3.5 19:36:09 10° SSW 19:42:39 72° ESE 19:49:29 10° NE
USA 238 3.5 19:36:16 10° SSW 19:42:46 71° ESE 19:49:36 10° NE
DELTA 2 R/B (1) 4.1 19:40:10 10° WSW 19:45:24 44° S 19:46:36 38° SE
Resurs 1-3 3.6 19:45:27 54° E 19:45:39 54° ENE 19:49:58 10° N
FALCON 9 DEB 3.8 19:46:13 10° WNW 19:48:55 46° WSW 19:48:55 46° WSW
IRS-1A Rocket 4.1 19:46:16 24° SSE 19:49:47 82° ENE 19:55:20 10° NNW
Cosmos 2219 Rocket 3.3 19:47:28 10° SW 19:52:47 44° WNW 19:58:10 10° NNE
Cosmos 1238 Rocket 3.6 19:51:19 10° SSW 19:55:17 47° W 19:58:39 10° N
CZ-2C R/B 3.9 19:51:12 10° N 19:56:17 41° WNW 20:01:13 10° SW
USA 305 2.9 19:54:34 10° NW 19:58:46 70° NNE 19:58:46 70° NNE
FALCON 9 DEB 4.3 19:55:45 10° WNW 19:58:06 39° W 19:58:06 39° W
Cosmos 1980 3.5 19:55:04 10° SSW 20:00:41 81° ESE 20:06:23 10° NNE
Cosmos 1733 Rocket 3.1 19:58:13 10° SSW 20:02:33 76° W 20:06:57 10° N
COSMOS 2428 3.9 20:02:33 10° SW 20:07:53 41° NW 20:13:17 10° NNE
NOSS 3-2 (A) 3.7 20:05:56 10° SW 20:11:34 66° NW 20:18:06 10° NE
USA 307 3.2 20:08:21 10° NW 20:12:00 63° NW 20:12:00 63° NW
USA 306 3.2 20:09:35 10° NW 20:13:13 62° NW 20:13:13 62° NW
Cosmos 1743 3.8 20:11:32 10° SSW 20:15:15 44° WNW 20:19:00 10° N
Cosmos 2369 Rocket 3.8 20:14:42 10° N 20:18:00 21° NNE 20:18:00 21° NNE
Cosmos 1898 Rocket 3.4 20:13:57 10° NNW 20:19:13 84° WSW 20:19:30 79° SSW
NOSS 0 Rocket 4.3 20:15:02 10° SW 20:21:08 64° WNW 20:27:17 10° NNE
CENTAUR R/B 2.5 20:16:59 10° SW 20:22:53 81° NW 20:30:01 10° NE
USA 308 3.7 20:19:10 10° WNW 20:22:24 50° WNW 20:22:24 50° WNW
Cosmos 1674 Rocket 4.5 20:28:49 10° NNW 20:32:24 46° WNW 20:32:24 46° WNW
OBJECT-B 3.6 20:35:13 18° WNW 20:35:13 18° WNW 20:36:48 10° NW
Ariane Rocket 4.2 20:35:45 28° SW 20:37:43 39° W 20:42:30 10° NNW
Cosmos 1763 Rocket 4.0 20:37:28 10° SW 20:42:42 59° WNW 20:47:58 10° NNE
Cosmos 2297 4.2 20:40:08 10° NNW 20:44:36 53° N 20:44:36 53° N
NOSS 3-2 (C) 3.8 20:47:48 10° SW 20:53:26 59° NW 20:55:55 36° NNE
SJ 16-02 4.0 20:52:17 10° WNW 20:54:44 15° W 20:56:22 12° WSW
Cosmos 1943 Rocket 3.2 20:53:19 10° NNW 20:56:57 39° N 20:56:57 39° N
Cosmos 2237 Rocket 3.3 20:54:43 10° SW 21:00:05 41° NW 21:05:29 10° NNE
Cosmos 2278 Rocket 4.0 20:58:00 10° NW 21:02:26 24° WSW 21:04:05 21° SW
Resurs 01 Rocket 3.7 21:09:14 25° NW 21:09:14 25° NW 21:11:26 10° NNW
USA 234 3.6 21:20:31 62° WNW 21:20:31 62° WNW 21:26:14 10° WSW
Cosmos 2369 Rocket 4.4 21:58:00 10° NNW 21:59:48 21° NNW 21:59:48 21° NNW
CENTAUR R/B 4.4 22:09:18 10° W 22:14:45 28° NNW 22:21:02 10° NNE
